• In United Kingdom
  • List of Countries
  • For 7 days
  • Water Temperature
  • Satellite Maps
  • Weather Map
  • Weather Widgets
  • user-avatar
    Login

    Hourly Weather Kandahar

    Today, 26 February, Monday

    Time Temperature Precipitation Wind Pressure Humidity
    00:00 +19°C° 0.5 mm 3 mps 675 mmHg 56%
    01:00 +19°C° 0.5 mm 3 mps 675 mmHg 57%
    02:00 +19°C° 0.1 mm 3 mps 675 mmHg 56%
    03:00 +18°C° 0.1 mm 3 mps 675 mmHg 56%
    04:00 +18°C° 0.1 mm 3 mps 675 mmHg 55%
    05:00 +18°C° 0.2 mm 3 mps 675 mmHg 55%
    06:00 +18°C° 0.2 mm 3 mps 675 mmHg 56%
    07:00 +17°C° 0.2 mm 3 mps 675 mmHg 56%
    08:00 +18°C° 0.3 mm 4 mps 675 mmHg 55%
    09:00 +17°C° 0.3 mm 5 mps 676 mmHg 53%
    10:00 +17°C° 0.3 mm 6 mps 676 mmHg 51%
    11:00 +20°C° 0.1 mm 7 mps 675 mmHg 46%
    12:00 +21°C° 0.1 mm 8 mps 675 mmHg 41%
    13:00 +22°C° 0.1 mm 9 mps 675 mmHg 37%
    14:00 +22°C° 0.5 mm 8 mps 675 mmHg 39%
    15:00 +21°C° 0.5 mm 8 mps 674 mmHg 41%
    16:00 +21°C° 0.5 mm 7 mps 674 mmHg 44%
    17:00 +20°C° 1 mm 6 mps 674 mmHg 48%
    18:00 +19°C° 1 mm 5 mps 675 mmHg 52%
    19:00 +18°C° 1 mm 3 mps 675 mmHg 57%
    20:00 +17°C° 0.7 mm 3 mps 675 mmHg 60%
    21:00 +17°C° 0.7 mm 3 mps 675 mmHg 62%
    22:00 +16°C° 0.7 mm 2 mps 675 mmHg 65%
    23:00 +16°C° 0.3 mm 3 mps 675 mmHg 66%

    Tomorrow, 27 February, Tuesday

    Time Temperature Precipitation Wind Pressure Humidity
    00:00 +16°C° 0.3 mm 3 mps 675 mmHg 67%
    01:00 +14°C° 0.3 mm 3 mps 675 mmHg 68%
    02:00 +14°C° 0 mm 3 mps 675 mmHg 69%
    03:00 +14°C° 0 mm 3 mps 674 mmHg 69%
    04:00 +14°C° 0 mm 3 mps 674 mmHg 70%
    05:00 +14°C° 0 mm 3 mps 675 mmHg 69%
    06:00 +14°C° 0 mm 3 mps 675 mmHg 68%
    07:00 +15°C° 0 mm 2 mps 675 mmHg 67%
    08:00 +17°C° 0 mm 2 mps 676 mmHg 60%
    09:00 +18°C° 0 mm 3 mps 676 mmHg 54%
    10:00 +20°C° 0 mm 3 mps 676 mmHg 47%
    11:00 +21°C° 0 mm 3 mps 676 mmHg 43%
    12:00 +22°C° 0 mm 3 mps 676 mmHg 39%
    13:00 +22°C° 0 mm 3 mps 675 mmHg 34%
    14:00 +24°C° 0 mm 2 mps 675 mmHg 34%
    15:00 +24°C° 0 mm 2 mps 675 mmHg 34%
    16:00 +24°C° 0 mm 2 mps 674 mmHg 34%
    17:00 +23°C° 0 mm 2 mps 674 mmHg 38%
    18:00 +22°C° 0 mm 1 mps 674 mmHg 41%
    19:00 +21°C° 0 mm 1 mps 674 mmHg 45%
    20:00 +21°C° 0.1 mm 1 mps 674 mmHg 48%
    21:00 +20°C° 0.1 mm 1 mps 675 mmHg 51%
    22:00 +20°C° 0.1 mm 1 mps 675 mmHg 54%
    23:00 +18°C° 0.2 mm 2 mps 674 mmHg 56%

    Day after tomorrow, 28 February, Wednesday

    Time Temperature Precipitation Wind Pressure Humidity
    00:00 +18°C° 0.2 mm 2 mps 674 mmHg 58%
    01:00 +17°C° 0.2 mm 3 mps 674 mmHg 60%
    02:00 +17°C° 0.1 mm 3 mps 674 mmHg 60%
    03:00 +17°C° 0.1 mm 3 mps 674 mmHg 60%
    04:00 +17°C° 0.1 mm 3 mps 673 mmHg 60%
    05:00 +17°C° 0.1 mm 3 mps 674 mmHg 59%
    06:00 +17°C° 0.1 mm 3 mps 674 mmHg 58%
    07:00 +17°C° 0.1 mm 3 mps 675 mmHg 56%
    08:00 +18°C° 0.2 mm 3 mps 675 mmHg 52%
    09:00 +19°C° 0.2 mm 3 mps 675 mmHg 47%
    10:00 +21°C° 0.2 mm 4 mps 676 mmHg 42%
    11:00 +21°C° 0.1 mm 4 mps 675 mmHg 41%
    12:00 +21°C° 0.1 mm 4 mps 675 mmHg 41%
    13:00 +22°C° 0.1 mm 3 mps 674 mmHg 40%
    14:00 +22°C° 0.4 mm 4 mps 674 mmHg 41%
    15:00 +22°C° 0.4 mm 4 mps 673 mmHg 42%
    16:00 +21°C° 0.4 mm 4 mps 673 mmHg 43%
    17:00 +20°C° 1.2 mm 4 mps 673 mmHg 48%
    18:00 +19°C° 1.2 mm 4 mps 673 mmHg 52%
    19:00 +19°C° 1.2 mm 4 mps 673 mmHg 57%
    20:00 +18°C° 1.1 mm 4 mps 673 mmHg 58%
    21:00 +18°C° 1.1 mm 4 mps 673 mmHg 60%
    22:00 +18°C° 1.1 mm 4 mps 673 mmHg 62%
    23:00 +17°C° 1.2 mm 4 mps 673 mmHg 64%

    1 March, Thursday

    Time Temperature Precipitation Wind Pressure Humidity
    00:00 +16°C° 1.2 mm 5 mps 673 mmHg 67%
    01:00 +15°C° 1.2 mm 5 mps 672 mmHg 69%
    02:00 +15°C° 1 mm 5 mps 672 mmHg 71%
    03:00 +15°C° 1 mm 5 mps 672 mmHg 73%
    04:00 +15°C° 1 mm 5 mps 672 mmHg 75%
    05:00 +15°C° 0.5 mm 5 mps 672 mmHg 75%
    06:00 +14°C° 0.5 mm 5 mps 673 mmHg 75%
    07:00 +14°C° 0.5 mm 4 mps 673 mmHg 75%
    08:00 +17°C° 0.2 mm 4 mps 673 mmHg 69%
    09:00 +18°C° 0.2 mm 4 mps 674 mmHg 63%
    10:00 +19°C° 0.2 mm 4 mps 674 mmHg 57%
    11:00 +20°C° 0.3 mm 4 mps 673 mmHg 52%
    12:00 +21°C° 0.3 mm 4 mps 673 mmHg 47%
    13:00 +22°C° 0.3 mm 4 mps 673 mmHg 42%
    14:00 +23°C° 0.4 mm 4 mps 672 mmHg 39%
    15:00 +23°C° 0.4 mm 4 mps 672 mmHg 36%
    16:00 +23°C° 0.4 mm 4 mps 671 mmHg 34%
    17:00 +24°C° 0 mm 3 mps 672 mmHg 36%
    18:00 +22°C° 0 mm 3 mps 672 mmHg 39%
    19:00 +21°C° 0 mm 2 mps 672 mmHg 42%
    20:00 +20°C° 0 mm 2 mps 672 mmHg 44%
    21:00 +20°C° 0 mm 2 mps 672 mmHg 46%
    22:00 +19°C° 0 mm 2 mps 672 mmHg 48%
    23:00 +19°C° 0.1 mm 2 mps 672 mmHg 49%

    2 March, Friday

    Time Temperature Precipitation Wind Pressure Humidity
    00:00 +19°C° 0.1 mm 2 mps 672 mmHg 50%
    01:00 +18°C° 0.1 mm 2 mps 672 mmHg 50%
    02:00 +18°C° 0.2 mm 2 mps 672 mmHg 53%
    03:00 +18°C° 0.2 mm 2 mps 671 mmHg 55%
    04:00 +17°C° 0.2 mm 2 mps 671 mmHg 57%
    05:00 +17°C° 0.2 mm 2 mps 672 mmHg 58%
    06:00 +17°C° 0.2 mm 2 mps 672 mmHg 58%
    07:00 +17°C° 0.2 mm 3 mps 672 mmHg 59%
    08:00 +18°C° 0.2 mm 4 mps 673 mmHg 53%
    09:00 +20°C° 0.2 mm 4 mps 673 mmHg 47%
    10:00 +21°C° 0.2 mm 5 mps 673 mmHg 41%
    11:00 +22°C° 0.1 mm 6 mps 673 mmHg 37%
    12:00 +23°C° 0.1 mm 6 mps 672 mmHg 32%
    13:00 +24°C° 0.1 mm 7 mps 672 mmHg 28%
    14:00 +24°C° 0 mm 7 mps 671 mmHg 28%
    15:00 +23°C° 0 mm 6 mps 671 mmHg 27%
    16:00 +23°C° 0 mm 6 mps 671 mmHg 26%
    17:00 +22°C° 0 mm 6 mps 671 mmHg 30%
    18:00 +21°C° 0 mm 5 mps 671 mmHg 33%
    19:00 +20°C° 0 mm 4 mps 671 mmHg 36%
    20:00 +19°C° 0.1 mm 3 mps 671 mmHg 42%
    21:00 +19°C° 0.1 mm 3 mps 671 mmHg 47%
    22:00 +18°C° 0.1 mm 3 mps 671 mmHg 53%
    23:00 +17°C° 0.6 mm 3 mps 671 mmHg 57%

    3 March, Saturday

    Time Temperature Precipitation Wind Pressure Humidity
    00:00 +16°C° 0.6 mm 3 mps 670 mmHg 61%
    01:00 +16°C° 0.6 mm 3 mps 670 mmHg 65%
    02:00 +15°C° 0.5 mm 2 mps 670 mmHg 67%
    03:00 +15°C° 0.5 mm 2 mps 670 mmHg 69%
    04:00 +15°C° 0.5 mm 2 mps 670 mmHg 70%
    05:00 +14°C° 0.6 mm 2 mps 670 mmHg 70%
    06:00 +14°C° 0.6 mm 2 mps 671 mmHg 69%
    07:00 +13°C° 0.6 mm 3 mps 671 mmHg 69%
    08:00 +14°C° 0.3 mm 4 mps 672 mmHg 62%
    09:00 +16°C° 0.3 mm 5 mps 672 mmHg 54%
    10:00 +17°C° 0.3 mm 5 mps 673 mmHg 46%
    11:00 +19°C° 0.1 mm 6 mps 673 mmHg 41%
    12:00 +20°C° 0.1 mm 6 mps 672 mmHg 36%
    13:00 +20°C° 0.1 mm 7 mps 672 mmHg 31%
    14:00 +20°C° 0 mm 7 mps 672 mmHg 30%
    15:00 +20°C° 0 mm 7 mps 672 mmHg 28%
    16:00 +20°C° 0 mm 7 mps 672 mmHg 27%
    17:00 +20°C° 0 mm 6 mps 672 mmHg 31%
    18:00 +19°C° 0 mm 5 mps 672 mmHg 35%
    19:00 +18°C° 0 mm 4 mps 672 mmHg 39%
    20:00 +17°C° 0 mm 4 mps 672 mmHg 41%
    21:00 +17°C° 0 mm 4 mps 672 mmHg 43%
    22:00 +15°C° 0 mm 4 mps 672 mmHg 45%
    23:00 +15°C° 0 mm 4 mps 672 mmHg 47%
    Show more